INTELSAT 32E (IS-32E)

Last updated on Wed Dec 17 2025 00:02:52 GMT+0000 (Coordinated Universal Time)

1 41945U 17007B 25350.19129894 -.00000246 00000+0 00000+0 0 9997 2 41945 0.0304 75.3547 0000524 315.6867 79.7377 1.00271613 32398
UTC large
Height (km)
Speed (km/s)
/
Latitude / Longitude
Inclination (degrees)
Orbital Period (minutes)
Azimuth
Elevation
Range (km)
Doppler Factor

Next 0 passes for location: London (51.5072 / 0.1276)

Sorry there are no passes over London.